Weather History for Cody, WY

Change the Weather History Date:

Tuesday, February 4, 2014

  Actual Average Record
Temperature  
Mean Temperature -6 °F -  
Max Temperature 0 °F 36 °F 62 °F (1963)
Min Temperature -11 °F 13 °F -28 °F (1989)
Degree Days  
Heating Degree Days 70    
Moisture  
Dew Point -11 °F    
Average Humidity 75    
Maximum Humidity 85    
Minimum Humidity 60    
Precipitation  
Precipitation 0.00 in - - ()
Sea Level Pressure  
Sea Level Pressure 30.16 in    
Wind  
Wind Speed 13 mph (North)    
Max Wind Speed 18 mph    
Max Gust Speed 24 mph    
Visibility 8 miles    
Events      
Averages and records for this station are not official NWS values.
T = Trace of Precipitation, MM = Missing Value Source: NWS Daily Summary

Daily Weather History Graph

Daily Weather History Graph

Search for Another Location

Airport:

Trip Planner

Search our weather history database for the weather conditions in past years. The results will help you decide how hot, cold, wet, or windy it might be!

Date:

Astronomy

Feb. 04, 2014 Rise Set
Actual Time 7:31 AM MST 5:29 PM MST
Civil Twilight 7:00 AM MST 6:00 PM MST
Nautical Twilight 6:25 AM MST 6:35 PM MST
Astronomical Twilight 5:51 AM MST 7:09 PM MST
Moon 9:56 AM MST (2/4) 11:43 PM MST (2/4)
Length of Visible Light 10h 59m
Length of Day
9h 58m
Waxing Crescent, 29% of the Moon is Illuminated
Feb 4
Waxing Crescent
Feb 6
First Quarter
Feb 14
Full
Feb 22
Last Quarter
Mar 1
New

Hourly Weather History & Observations

Time (MST) Temp. Windchill Dew Point Humidity Pressure Visibility Wind Dir Wind Speed Gust Speed Precip Events Conditions
12:15 AM -0.4 °F -19.9 °F -5.8 °F 78% 30.02 in 6.0 mi North 15.0 mph 21.9 mph N/A   Overcast
12:35 AM -0.4 °F -20.5 °F -5.8 °F 78% 30.02 in 5.0 mi North 16.1 mph 24.2 mph N/A   Overcast
12:55 AM -2.2 °F -22.2 °F -7.6 °F 78% 30.02 in 5.0 mi North 15.0 mph - N/A   Overcast
1:15 AM -2.2 °F -19.9 °F -7.6 °F 78% 30.03 in 9.0 mi North 11.5 mph - N/A   Overcast
1:35 AM -2.2 °F -21.5 °F -7.6 °F 78% 30.03 in 8.0 mi North 13.8 mph - N/A   Overcast
1:55 AM -2.2 °F -21.5 °F -7.6 °F 78% 30.04 in 10.0 mi North 13.8 mph - N/A   Overcast
2:15 AM -2.2 °F -23.5 °F -9.4 °F 71% 30.04 in 7.0 mi North 17.3 mph - N/A   Overcast
2:35 AM -2.2 °F -23.5 °F -7.6 °F 78% 30.04 in 8.0 mi North 17.3 mph - N/A   Overcast
2:55 AM -2.2 °F -22.9 °F -9.4 °F 71% 30.04 in 10.0 mi North 16.1 mph 20.7 mph N/A   Overcast
3:15 AM -4.0 °F -23.7 °F -7.6 °F 85% 30.05 in 7.0 mi North 13.8 mph - N/A   Overcast
3:35 AM -4.0 °F -22.1 °F -9.4 °F 78% 30.05 in 5.0 mi North 11.5 mph 21.9 mph N/A   Overcast
3:55 AM -4.0 °F -24.5 °F -9.4 °F 78% 30.06 in 10.0 mi North 15.0 mph - N/A   Overcast
4:15 AM -5.8 °F -26.8 °F -9.4 °F 84% 30.06 in 10.0 mi North 15.0 mph - N/A   Overcast
4:35 AM -5.8 °F -25.2 °F -11.2 °F 77% 30.07 in 10.0 mi North 12.7 mph - N/A   Overcast
4:55 AM -4.0 °F -23.0 °F -9.4 °F 78% 30.08 in 9.0 mi North 12.7 mph - N/A   Overcast
5:15 AM -4.0 °F -25.2 °F -11.2 °F 71% 30.08 in 7.0 mi North 16.1 mph - N/A   Overcast
5:35 AM -5.8 °F -27.5 °F -9.4 °F 84% 30.08 in 5.0 mi North 16.1 mph 20.7 mph N/A   Overcast
5:55 AM -5.8 °F -25.2 °F -11.2 °F 77% 30.09 in 7.0 mi North 12.7 mph 18.4 mph N/A   Overcast
6:35 AM -5.8 °F -26.8 °F -9.4 °F 84% 30.10 in 3.0 mi North 15.0 mph - N/A   Overcast
6:55 AM -5.8 °F -24.4 °F -11.2 °F 77% 30.11 in 5.0 mi NNW 11.5 mph 18.4 mph N/A   Overcast
7:15 AM -5.8 °F -19.9 °F - N/A% 30.11 in 10.0 mi NNW 6.9 mph - N/A   Overcast
7:35 AM -5.8 °F -19.9 °F -11.2 °F 77% 30.12 in 10.0 mi NNW 6.9 mph - N/A   Overcast
7:55 AM -5.8 °F -21.2 °F -11.2 °F 77% 30.12 in 10.0 mi NNW 8.1 mph - N/A   Mostly Cloudy
8:15 AM -5.8 °F -26.8 °F -11.2 °F 77% 30.13 in 4.0 mi North 15.0 mph - N/A   Overcast
8:35 AM -5.8 °F -25.2 °F -9.4 °F 84% 30.14 in 5.0 mi North 12.7 mph - N/A   Overcast
8:55 AM -5.8 °F -22.4 °F -11.2 °F 77% 30.15 in 7.0 mi North 9.2 mph - N/A   Overcast
9:15 AM -5.8 °F -19.9 °F -9.4 °F 84% 30.15 in 7.0 mi North 6.9 mph - N/A   Overcast
9:35 AM -5.8 °F -25.2 °F - N/A% 30.16 in 7.0 mi North 12.7 mph - N/A   Overcast
9:55 AM -4.0 °F -21.2 °F -9.4 °F 78% 30.17 in 10.0 mi North 10.4 mph - N/A   Overcast
10:15 AM -4.0 °F -21.2 °F -11.2 °F 71% 30.17 in 10.0 mi NNE 10.4 mph - N/A   Overcast
10:35 AM -2.2 °F -18.9 °F -9.4 °F 71% 30.18 in 9.0 mi NNE 10.4 mph - N/A   Overcast
10:55 AM -2.2 °F -19.9 °F -9.4 °F 71% 30.18 in 5.0 mi North 11.5 mph - N/A   Overcast
11:15 AM -2.2 °F -20.7 °F -9.4 °F 71% 30.18 in 5.0 mi North 12.7 mph - N/A   Overcast
11:35 AM -0.4 °F -18.4 °F -9.4 °F 66% 30.18 in 10.0 mi North 12.7 mph - N/A   Overcast
11:55 AM -0.4 °F -17.6 °F -9.4 °F 66% 30.17 in 10.0 mi North 11.5 mph - N/A   Mostly Cloudy
12:15 PM -0.4 °F -19.9 °F -9.4 °F 66% 30.17 in 10.0 mi North 15.0 mph - N/A   Mostly Cloudy
12:35 PM -0.4 °F -18.4 °F -9.4 °F 66% 30.17 in 10.0 mi NNW 12.7 mph - N/A   Mostly Cloudy
12:55 PM -0.4 °F -19.9 °F -11.2 °F 60% 30.16 in 10.0 mi North 15.0 mph 21.9 mph N/A   Mostly Cloudy
1:15 PM -0.4 °F -20.5 °F -9.4 °F 66% 30.16 in 10.0 mi North 16.1 mph 21.9 mph N/A   Scattered Clouds
1:35 PM -0.4 °F -20.5 °F -11.2 °F 60% 30.16 in 10.0 mi North 16.1 mph 21.9 mph N/A   Clear
1:55 PM -0.4 °F -21.7 °F -9.4 °F 66% 30.16 in 10.0 mi North 18.4 mph 21.9 mph N/A   Clear
2:15 PM -0.4 °F -21.2 °F -9.4 °F 66% 30.16 in 10.0 mi North 17.3 mph 20.7 mph N/A   Clear
2:35 PM -0.4 °F -19.9 °F -9.4 °F 66% 30.16 in 10.0 mi North 15.0 mph - N/A   Clear
2:55 PM -2.2 °F -22.9 °F -9.4 °F 71% 30.17 in 10.0 mi North 16.1 mph 20.7 mph N/A   Clear
3:15 PM -2.2 °F -22.2 °F -11.2 °F 66% 30.18 in 10.0 mi North 15.0 mph - N/A   Partly Cloudy
3:35 PM -2.2 °F -21.5 °F -11.2 °F 66% 30.18 in 10.0 mi North 13.8 mph 18.4 mph N/A   Partly Cloudy
3:55 PM -2.2 °F -20.7 °F -11.2 °F 66% 30.19 in 10.0 mi North 12.7 mph 17.3 mph N/A   Scattered Clouds
4:35 PM -5.8 °F -25.2 °F -9.4 °F 84% 30.20 in 8.0 mi North 12.7 mph - N/A   Mostly Cloudy
4:55 PM -5.8 °F -26.8 °F -11.2 °F 77% 30.21 in 7.0 mi North 15.0 mph - N/A   Mostly Cloudy
5:35 PM -5.8 °F -25.2 °F -11.2 °F 77% 30.22 in 10.0 mi North 12.7 mph - N/A   Overcast
5:55 PM -5.8 °F -24.4 °F -11.2 °F 77% 30.22 in 10.0 mi North 11.5 mph - N/A   Overcast
6:15 PM -5.8 °F -22.4 °F - N/A% 30.23 in 10.0 mi North 9.2 mph - N/A   Overcast
6:35 PM -7.6 °F -24.6 °F - N/A% 30.24 in 10.0 mi NNW 9.2 mph - N/A   Mostly Cloudy
6:55 PM -7.6 °F -24.6 °F -13.0 °F 77% 30.25 in 10.0 mi North 9.2 mph - N/A   Partly Cloudy
7:15 PM -7.6 °F -22.1 °F -13.0 °F 77% 30.25 in 10.0 mi North 6.9 mph - N/A   Mostly Cloudy
7:35 PM -7.6 °F -23.4 °F -11.2 °F 84% 30.25 in 10.0 mi North 8.1 mph - N/A   Mostly Cloudy
7:55 PM -7.6 °F -23.4 °F -13.0 °F 77% 30.25 in 10.0 mi NNW 8.1 mph - N/A   Mostly Cloudy
8:15 PM -7.6 °F -22.1 °F -13.0 °F 77% 30.26 in 10.0 mi North 6.9 mph - N/A   Overcast
8:35 PM -7.6 °F -25.7 °F -11.2 °F 84% 30.26 in 9.0 mi NNE 10.4 mph - N/A   Overcast
8:55 PM -7.6 °F -25.7 °F -14.8 °F 71% 30.26 in 6.0 mi North 10.4 mph - N/A   Overcast
9:15 PM -7.6 °F -24.6 °F -13.0 °F 77% 30.27 in 3.0 mi North 9.2 mph - N/A   Overcast
9:35 PM -7.6 °F -23.4 °F -11.2 °F 84% 30.27 in 3.0 mi North 8.1 mph - N/A   Overcast
9:55 PM -7.6 °F -24.6 °F -13.0 °F 77% 30.28 in 5.0 mi North 9.2 mph - N/A   Overcast
10:15 PM -9.4 °F -26.8 °F -14.8 °F 77% 30.28 in 7.0 mi North 9.2 mph - N/A   Mostly Cloudy
10:35 PM -9.4 °F -24.3 °F -14.8 °F 77% 30.28 in 10.0 mi North 6.9 mph - N/A   Partly Cloudy
11:15 PM -11.2 °F -23.0 °F -16.6 °F 77% 30.29 in 10.0 mi North 4.6 mph - N/A   Clear
11:35 PM -11.2 °F -23.0 °F -16.6 °F 77% 30.29 in 10.0 mi NE 4.6 mph - N/A   Clear
11:55 PM -11.2 °F -27.8 °F -16.6 °F 77% 30.29 in 10.0 mi NNE 8.1 mph - N/A   Clear